When you browse on this site, cookies collect data to enhance your experience and personalize the content and advertising you see.
Visit our Privacy Policy to learn more. By continuing to use the site, you agree to this use of cookies and data.
  • In Latvia
  • List of Countries
  • For 7 days
  • Water Temperature
  • Satellite Maps
  • Weather Map
  • Weather Widgets
  • user-avatar
    Login

    Hourly Weather Kranston

    Today, 20 July, Saturday

    Time Temperature Precipitation Wind Pressure Humidity
    00:00 +27°C° 0 mm 3 mps 755 mmHg 89%
    01:00 +27°C° 0 mm 2 mps 755 mmHg 89%
    02:00 +27°C° 0 mm 2 mps 755 mmHg 90%
    03:00 +27°C° 0 mm 2 mps 755 mmHg 91%
    04:00 +26°C° 0 mm 2 mps 755 mmHg 92%
    05:00 +28°C° 0 mm 2 mps 755 mmHg 85%
    06:00 +29°C° 0 mm 2 mps 755 mmHg 78%
    07:00 +30°C° 0 mm 2 mps 756 mmHg 71%
    08:00 +32°C° 0 mm 2 mps 756 mmHg 64%
    09:00 +35°C° 0 mm 2 mps 755 mmHg 58%
    10:00 +36°C° 0 mm 2 mps 755 mmHg 52%
    11:00 +37°C° 0 mm 2 mps 755 mmHg 50%
    12:00 +38°C° 0 mm 3 mps 755 mmHg 48%
    13:00 +39°C° 0 mm 3 mps 755 mmHg 46%
    14:00 +38°C° 0 mm 4 mps 754 mmHg 47%
    15:00 +38°C° 0 mm 4 mps 754 mmHg 48%
    16:00 +38°C° 0 mm 4 mps 754 mmHg 50%
    17:00 +36°C° 0.1 mm 4 mps 754 mmHg 57%
    18:00 +34°C° 0.1 mm 4 mps 754 mmHg 64%
    19:00 +31°C° 0.1 mm 3 mps 754 mmHg 71%
    20:00 +30°C° 0 mm 3 mps 754 mmHg 72%
    21:00 +30°C° 0 mm 3 mps 754 mmHg 74%
    22:00 +29°C° 0 mm 3 mps 754 mmHg 76%
    23:00 +29°C° 0.1 mm 2 mps 754 mmHg 78%

    Tomorrow, 21 July, Sunday

    Time Temperature Precipitation Wind Pressure Humidity
    00:00 +28°C° 0.1 mm 2 mps 754 mmHg 80%
    01:00 +28°C° 0.1 mm 2 mps 754 mmHg 82%
    02:00 +27°C° 0 mm 2 mps 754 mmHg 82%
    03:00 +27°C° 0 mm 2 mps 754 mmHg 82%
    04:00 +27°C° 0 mm 2 mps 753 mmHg 82%
    05:00 +28°C° 0 mm 2 mps 754 mmHg 79%
    06:00 +29°C° 0 mm 2 mps 754 mmHg 76%
    07:00 +30°C° 0 mm 3 mps 754 mmHg 73%
    08:00 +33°C° 0 mm 3 mps 754 mmHg 65%
    09:00 +35°C° 0 mm 3 mps 754 mmHg 57%
    10:00 +37°C° 0 mm 3 mps 754 mmHg 49%
    11:00 +38°C° 0 mm 3 mps 754 mmHg 46%
    12:00 +38°C° 0 mm 4 mps 754 mmHg 43%
    13:00 +40°C° 0 mm 4 mps 753 mmHg 40%
    14:00 +40°C° 0 mm 4 mps 753 mmHg 40%
    15:00 +38°C° 0 mm 4 mps 753 mmHg 41%
    16:00 +38°C° 0 mm 4 mps 753 mmHg 41%
    17:00 +36°C° 0.2 mm 4 mps 753 mmHg 50%
    18:00 +34°C° 0.2 mm 3 mps 754 mmHg 59%
    19:00 +31°C° 0.2 mm 3 mps 754 mmHg 67%
    20:00 +29°C° 0.8 mm 3 mps 754 mmHg 73%
    21:00 +28°C° 0.8 mm 3 mps 755 mmHg 80%
    22:00 +26°C° 0.8 mm 3 mps 755 mmHg 86%
    23:00 +25°C° 0.1 mm 3 mps 755 mmHg 84%

    Day after tomorrow, 22 July, Monday

    Time Temperature Precipitation Wind Pressure Humidity
    00:00 +24°C° 0.1 mm 2 mps 755 mmHg 82%
    01:00 +23°C° 0.1 mm 2 mps 756 mmHg 80%
    02:00 +23°C° 0 mm 2 mps 756 mmHg 79%
    03:00 +23°C° 0 mm 1 mps 756 mmHg 77%
    04:00 +22°C° 0 mm 1 mps 756 mmHg 76%
    05:00 +24°C° 0 mm 1 mps 757 mmHg 71%
    06:00 +25°C° 0 mm 1 mps 757 mmHg 66%
    07:00 +26°C° 0 mm 1 mps 757 mmHg 61%
    08:00 +28°C° 0 mm 1 mps 757 mmHg 53%
    09:00 +31°C° 0 mm 1 mps 757 mmHg 46%
    10:00 +33°C° 0 mm 1 mps 757 mmHg 38%
    11:00 +34°C° 0 mm 2 mps 757 mmHg 39%
    12:00 +34°C° 0 mm 2 mps 757 mmHg 39%
    13:00 +34°C° 0 mm 3 mps 757 mmHg 39%
    14:00 +33°C° 0.1 mm 4 mps 756 mmHg 46%
    15:00 +30°C° 0.1 mm 4 mps 756 mmHg 53%
    16:00 +29°C° 0.1 mm 4 mps 756 mmHg 60%
    17:00 +27°C° 0.2 mm 3 mps 756 mmHg 67%
    18:00 +25°C° 0.2 mm 3 mps 756 mmHg 75%
    19:00 +24°C° 0.2 mm 2 mps 756 mmHg 83%
    20:00 +23°C° 0.1 mm 2 mps 755 mmHg 85%
    21:00 +23°C° 0.1 mm 2 mps 755 mmHg 87%
    22:00 +23°C° 0.1 mm 1 mps 755 mmHg 89%
    23:00 +22°C° 0.5 mm 1 mps 754 mmHg 91%

    23 July, Tuesday

    Time Temperature Precipitation Wind Pressure Humidity
    00:00 +22°C° 0.5 mm 1 mps 753 mmHg 93%
    01:00 +22°C° 0.5 mm 1 mps 752 mmHg 95%
    02:00 +22°C° 0.3 mm 1 mps 752 mmHg 96%
    03:00 +22°C° 0.3 mm 1 mps 751 mmHg 96%
    04:00 +22°C° 0.3 mm 1 mps 751 mmHg 97%
    05:00 +23°C° 0.3 mm 2 mps 751 mmHg 96%
    06:00 +24°C° 0.3 mm 2 mps 751 mmHg 95%
    07:00 +25°C° 0.3 mm 3 mps 751 mmHg 94%
    08:00 +25°C° 2.3 mm 3 mps 752 mmHg 94%
    09:00 +25°C° 2.3 mm 3 mps 752 mmHg 93%
    10:00 +25°C° 2.3 mm 3 mps 752 mmHg 93%
    11:00 +24°C° 3.3 mm 3 mps 752 mmHg 93%
    12:00 +22°C° 3.3 mm 3 mps 753 mmHg 94%
    13:00 +23°C° 3.3 mm 2 mps 753 mmHg 94%
    14:00 +24°C° 0.1 mm 2 mps 753 mmHg 87%
    15:00 +25°C° 0.1 mm 2 mps 753 mmHg 79%
    16:00 +26°C° 0.1 mm 1 mps 753 mmHg 72%
    17:00 +25°C° 0.1 mm 1 mps 754 mmHg 78%
    18:00 +24°C° 0.1 mm 1 mps 754 mmHg 83%
    19:00 +23°C° 0.1 mm 1 mps 755 mmHg 89%
    20:00 +22°C° 0.1 mm 1 mps 755 mmHg 91%
    21:00 +21°C° 0.1 mm 1 mps 756 mmHg 92%
    22:00 +20°C° 0.1 mm 1 mps 756 mmHg 94%
    23:00 +20°C° 0 mm 1 mps 756 mmHg 93%

    24 July, Wednesday

    Time Temperature Precipitation Wind Pressure Humidity
    00:00 +20°C° 0 mm 1 mps 756 mmHg 93%
    01:00 +20°C° 0 mm 1 mps 756 mmHg 92%
    02:00 +20°C° 0 mm 1 mps 757 mmHg 92%
    03:00 +20°C° 0 mm 1 mps 757 mmHg 92%
    04:00 +19°C° 0 mm 1 mps 757 mmHg 92%
    05:00 +20°C° 0 mm 1 mps 757 mmHg 89%
    06:00 +21°C° 0 mm 1 mps 758 mmHg 86%
    07:00 +22°C° 0 mm 1 mps 758 mmHg 83%
    08:00 +24°C° 0 mm 1 mps 758 mmHg 72%
    09:00 +26°C° 0 mm 1 mps 758 mmHg 62%
    10:00 +28°C° 0 mm 1 mps 759 mmHg 51%
    11:00 +29°C° 0 mm 2 mps 758 mmHg 48%
    12:00 +29°C° 0 mm 2 mps 758 mmHg 45%
    13:00 +30°C° 0 mm 3 mps 758 mmHg 42%
    14:00 +29°C° 0 mm 3 mps 758 mmHg 42%
    15:00 +29°C° 0 mm 3 mps 758 mmHg 43%
    16:00 +29°C° 0 mm 4 mps 758 mmHg 44%
    17:00 +27°C° 0 mm 3 mps 758 mmHg 50%
    18:00 +25°C° 0 mm 3 mps 759 mmHg 57%
    19:00 +22°C° 0 mm 3 mps 759 mmHg 63%
    20:00 +22°C° 0 mm 3 mps 759 mmHg 62%
    21:00 +21°C° 0 mm 3 mps 760 mmHg 60%
    22:00 +20°C° 0 mm 3 mps 760 mmHg 59%
    23:00 +19°C° 0 mm 3 mps 760 mmHg 59%

    25 July, Thursday

    Time Temperature Precipitation Wind Pressure Humidity
    00:00 +18°C° 0 mm 2 mps 761 mmHg 59%
    01:00 +18°C° 0 mm 2 mps 761 mmHg 59%
    02:00 +17°C° 0 mm 2 mps 761 mmHg 59%
    03:00 +17°C° 0 mm 2 mps 762 mmHg 60%
    04:00 +16°C° 0 mm 2 mps 762 mmHg 60%
    05:00 +17°C° 0 mm 2 mps 763 mmHg 59%
    06:00 +18°C° 0 mm 3 mps 763 mmHg 57%
    07:00 +19°C° 0 mm 3 mps 764 mmHg 56%
    08:00 +21°C° 0 mm 2 mps 764 mmHg 50%
    09:00 +24°C° 0 mm 2 mps 764 mmHg 44%
    10:00 +26°C° 0 mm 2 mps 764 mmHg 38%
    11:00 +27°C° 0 mm 2 mps 764 mmHg 36%
    12:00 +28°C° 0 mm 1 mps 764 mmHg 34%
    13:00 +29°C° 0 mm 1 mps 764 mmHg 33%
    14:00 +29°C° 0 mm 1 mps 764 mmHg 35%
    15:00 +28°C° 0 mm 2 mps 764 mmHg 38%
    16:00 +28°C° 0 mm 2 mps 764 mmHg 40%
    17:00 +25°C° 0 mm 2 mps 764 mmHg 51%
    18:00 +23°C° 0 mm 2 mps 765 mmHg 61%
    19:00 +20°C° 0 mm 2 mps 765 mmHg 72%
    20:00 +19°C° 0 mm 2 mps 765 mmHg 76%
    21:00 +19°C° 0 mm 1 mps 766 mmHg 80%
    22:00 +19°C° 0 mm 1 mps 766 mmHg 84%
    23:00 +18°C° 0 mm 1 mps 766 mmHg 85%
    Show more